Αρχική σελίδα
METAR-TAF:

METAR-TAF

Αεροδρόμια :

Aurora Municipal Airport (Al Potter Field)

Aurora, Νεμπράσκα, Ηνωμένες Πολιτείες Αμερικής

γεωγραφικό πλάτος: 40-53-38N, γεωγραφικό μήκος: 097-59-40W, υψόμετρο: 550 μ

Παρών καιρός

Η αναφορά έγινε 31 λεπτά πριν, στις 11:15 UTC
Άνεμος 19 kt από Β/BΔ με ριπές μέχρι 24 kt
Θερμοκρασία 3°C
Υγρασία 87%
Πίεση 1012 hPa
Ορατότητα: 16.1 χλμ
Νεφοσκεπής σε ύψος 1900 πόδια

METAR: KAUH 131115Z AUTO 34019G24KT 10SM OVC019 03/01 A2987 RMK AO2 T00250012

Χρόνος: 05:46 (11:46 UTC)


TAF: λείπει

Μετεωρολογικές αναφορές και προγνώσεις για περισσότερα από 4000 αεροδρόμια (δελτία METAR και TAF).

Οι διαθέσιμοι σταθμοί απεικονίζονται στο χάρτη με κίτρινες και κόκκινες κουκκίδες.

Μετακινήστε το ποντίκι πάνω από τις κουκκίδες για να δείτε το όνομα του σταθμού.

Στη συνέχεια, κάντε κλικ για να δείτε τις μετεωρολογικές αναφορές και τις προγνώσεις καιρού.

Για να αλλάξετε το χάρτη: κάντε κλικ στα πράσινα κουμπιά με τον μαύρο σταυρό για να ζουμάρετε, στο πράσινο κουμπί με την παύλα για να αφαιρέσετε το ζουμ ή στα πράσινα βέλη για να αντιπαραβάλλετε χάρτες.


METAR-TAF: